Home   Weather   Iași   Past weeks
Flag for Romania

Past Weather in Iași, Romania — Yesterday and Last 2 Weeks

Now
55 °F

Low clouds.


Feels Like: 55 °F
Forecast: 69 / 49 °F
Wind: 5 mph from Northeast

Location: Iasi Airport

Current Time: Oct 23, 2019 at 7:04:00 pm

Latest Report: Oct 23, 2019 at 6:30 pm


Visibility: 5 mi

Pressure: 30.21 "Hg

Humidity: 94%

Dew Point: 54 °F

Location of IașiLocation

Past Weather in Iași — Graph

°F

Iași Temperature Yesterday

Maximum temperature yesterday: 57 °F (at 2:30 pm)
Minimum temperature yesterday: 50 °F (at 5:30 am)
Average temperature yesterday: 55 °F

High & Low Weather Summary for the Past Weeks

 TemperatureHumidityPressure
High73 °F (Oct 10, 1:30 pm)100% (Oct 14, 9:00 am)30.27 "Hg (Oct 14, 9:00 am)
Low41 °F (Oct 9, 2:30 am)25% (Oct 13, 2:00 pm)29.86 "Hg (Oct 10, 4:00 am)
Average56 °F79%30.13 "Hg
* Reported Oct 8 5:00 pm — Oct 23 5:30 pm, Iași. Weather by CustomWeather, © 2019

Note: Actual official high and low records may vary slightly from our data, if they occured in-between our weather recording intervals... More about our weather records

Advertising

Iași Weather History for the Previous 24 Hours

Scroll right to see more
 ConditionsComfort  
Time TempWeatherWind HumidityBarometerVisibility
5:30 pm
Wed, Oct 23
55 °FLow clouds.3 mph94%30.21 "Hg5 mi
5:00 pm55 °FLow clouds.3 mph94%30.21 "Hg5 mi
4:30 pm55 °FLow clouds.5 mph94%30.21 "Hg5 mi
4:00 pm55 °FLow clouds.3 mph94%30.21 "Hg4 mi
3:30 pm55 °FLow clouds.1 mph94%30.21 "Hg4 mi
3:00 pm55 °FLow clouds.2 mph94%30.21 "Hg4 mi
2:30 pm55 °FLow clouds.1 mph88%30.21 "Hg4 mi
2:00 pm55 °FLow clouds.5 mph94%30.21 "Hg4 mi
1:30 pm55 °FLow clouds.3 mph88%30.21 "Hg4 mi
1:00 pm54 °FFog.2 mph94%30.21 "Hg3 mi
12:30 pm54 °FFog.2 mph100%30.24 "Hg3 mi
12:00 pm54 °FFog.2 mph100%30.24 "Hg2 mi
11:30 am54 °FFog.2 mph100%30.24 "Hg1 mi
11:00 am54 °FFog.2 mph100%30.24 "Hg1 mi
10:30 am54 °FFog.2 mph100%30.24 "Hg1 mi
10:00 am54 °FFog.2 mph100%30.24 "Hg1 mi
9:30 am54 °FFog.2 mph100%30.24 "Hg1 mi
9:00 am54 °FFog.1 mph100%30.24 "Hg1 mi
8:30 am54 °FFog.2 mph100%30.24 "Hg1 mi
8:00 am54 °FFog.1 mph100%30.24 "Hg1 mi
7:30 am54 °FFog.2 mph100%30.21 "Hg1 mi
7:00 am54 °FFog.2 mph100%30.24 "Hg1 mi
6:00 am54 °FFog.1 mph100%30.21 "Hg1 mi
5:30 am54 °FFog.3 mph100%30.21 "Hg1 mi
5:00 am54 °FFog.3 mph100%30.24 "Hg1 mi
4:30 am54 °FFog.3 mph100%30.24 "Hg1 mi
4:00 am54 °FFog.5 mph100%30.24 "Hg1 mi
3:30 am55 °FFog.1 mph100%30.24 "Hg1 mi
3:00 am55 °FFog.1 mph100%30.24 "Hg1 mi
2:30 am55 °FFog.2 mph100%30.24 "Hg1 mi
2:00 am55 °FFog.2 mph100%30.24 "Hg1 mi
1:30 am55 °FFog.No wind100%30.24 "Hg2 mi
1:00 am55 °FFog.1 mph100%30.24 "Hg2 mi
12:30 am55 °FFog.No wind100%30.24 "Hg2 mi
12:00 am55 °FFog.No wind100%30.24 "Hg3 mi
11:30 pm
Tue, Oct 22
55 °FFog.2 mph100%30.24 "Hg2 mi
11:00 pm55 °FFog.5 mph100%30.24 "Hg2 mi
10:30 pm55 °FFog.5 mph100%30.27 "Hg2 mi
10:00 pm55 °FFog.6 mph100%30.27 "Hg2 mi
9:30 pm55 °FFog.7 mph100%30.27 "Hg2 mi
9:00 pm57 °FFog.6 mph94%30.27 "Hg3 mi
8:30 pm57 °FPassing clouds.6 mph94%30.27 "Hg4 mi
8:00 pm57 °FLow clouds.6 mph94%30.27 "Hg4 mi
7:30 pm57 °FLow clouds.5 mph94%30.27 "Hg4 mi
7:00 pm57 °FLow clouds.6 mph94%30.27 "Hg5 mi
Weather by CustomWeather, © 2019

See weather overview